Regional Weather Roundup
Issued by NWS

Home | Current Version | Previous Version | Text Only | Print | Product List | Glossary On
Versions: 1 2 3 4 5 6 7 8 9 10 11 12 13 14 15 16 17 18 19 20 21 22 23 24 25 26 27 28 29 30 31 32 33 34 35 36 37 38 39 40 41 42 43 44 45 46 47 48 49 50
000
ASUS46 KPQR 210210
RWROR

OREGON REGIONAL WEATHER ROUNDUP
NATIONAL WEATHER SERVICE PORTLAND OR
700 PM PDT WED AUG 20 2014

NOTE: "FAIR" INDICATES FEW OR NO CLOUDS BELOW 12,000 FEET WITH
NO SIGNIFICANT WEATHER AND/OR OBSTRUCTIONS TO VISIBILITY.

ORZ001>013-210300-
NORTHWEST OREGON


CITY           SKY/WX    TMP DP  RH WIND       PRES   REMARKS
ASTORIA        PTSUNNY   64  54  69 W7        30.02S
NEWPORT        SUNNY     61  55  82 N7        30.05S
PORTLAND       MOSUNNY   74  51  44 N7        29.96R
VANCOUVER WA   SUNNY     73  49  42 N9        29.96R
SCAPPOOSE      SUNNY     72  49  44 N10       29.96S
HILLSBORO      SUNNY     73  47  39 N13       29.95S
AURORA         SUNNY     76  49  38 CALM      29.95F
MCMINNVILLE    SUNNY     76  54  46 SW7       29.95S
SALEM          SUNNY     76  49  38 NW12      29.94S
CORVALLIS      SUNNY     73  52  46 NW15      29.96S
EUGENE         MOSUNNY   79  48  33 NE8       29.94F
$$

ORZ021-028-210300-
SOUTHWEST OREGON


CITY           SKY/WX    TMP DP  RH WIND       PRES   REMARKS
NORTH BEND     SUNNY     63  57  82 N18       30.01R
BROOKINGS      CLEAR     72  59  63 S8        29.88S
ROSEBURG       SUNNY     80  52  37 N8        29.92S
SEXTON SUMMIT  SUNNY     65  50  58 CALM      30.02S
MEDFORD        MOSUNNY   82  49  31 N12       29.89S
$$

ORZ009-041-210300-
COLUMBIA GORGE


CITY           SKY/WX    TMP DP  RH WIND       PRES   REMARKS
TROUTDALE      SUNNY     75  50  41 NW8       29.94S
THE DALLES     SUNNY     76  46  34 W18G31    29.85S
$$

ORZ029>031-042>050-061>064-210300-
EASTERN OREGON


CITY           SKY/WX    TMP DP  RH WIND       PRES   REMARKS
REDMOND        CLEAR     72  37  28 NW14      29.94R
BEND           CLEAR     70  39  32 NW14      29.97R
KLAMATH FALLS  SUNNY     73  49  42 NW21G26   29.95S
LAKEVIEW       CLOUDY    75  43  31 W13       29.97S
HERMISTON      CLEAR     80  43  26 W13       29.79R
PENDLETON      CLEAR     79  32  18 NW16      29.82R
JOHN DAY       PTCLDY    75  41  29 W12       29.91R
MEACHAM        CLEAR     67  28  23 MISG      29.94R
LA GRANDE      CLEAR     73  37  27 N10       29.87R
BAKER CITY     NOT AVBL
BURNS          PTCLDY    73  43  33 W12       29.91R
ROME             N/A     80  36  20 NW15G22   29.85R
ONTARIO        MOCLDY    79  52  38 N13       29.78R
$$


USA.gov is the U.S. government's official web portal to all federal, state and local government web resources and services.